Time,TemperatureF,DewpointF,PressureIn,WindDirection,WindDirectionDegrees,WindSpeedMPH,WindSpeedGustMPH,Humidity,HourlyPrecipIn,Conditions,Clouds,dailyrainin,SolarRadiationWatts/m^2,SoftwareType,DateUTC
2013-02-11 00:01:00,32.0,12.0,-100.00,SE,131,0.0,11.0,42,0.00,,,0.00,0.000000,,2013-02-11 08:01:00,
2013-02-11 00:11:00,32.0,12.0,-100.00,SE,131,0.0,11.0,42,0.00,,,0.00,0.000000,,2013-02-11 08:11:00,
2013-02-11 00:21:00,32.0,12.0,-100.00,SE,131,0.0,11.0,42,0.00,,,0.00,0.000000,,2013-02-11 08:21:00,
2013-02-11 00:52:00,30.0,12.0,-100.00,NW,312,0.0,0.0,47,0.00,,,0.00,0.000000,,2013-02-11 08:52:00,
2013-02-11 01:01:00,30.0,12.0,-100.00,NW,312,0.0,0.0,47,0.00,,,0.00,0.000000,,2013-02-11 09:01:00,
2013-02-11 01:12:00,30.0,12.0,-100.00,NW,312,0.0,0.0,47,0.00,,,0.00,0.000000,,2013-02-11 09:12:00,
2013-02-11 01:21:00,30.0,12.0,-100.00,NW,312,0.0,0.0,47,0.00,,,0.00,0.000000,,2013-02-11 09:21:00,
2013-02-11 01:52:00,32.0,11.0,-100.00,NNW,331,4.0,11.0,41,0.00,,,0.00,0.000000,,2013-02-11 09:52:00,
2013-02-11 02:01:00,32.0,11.0,-100.00,NNW,331,4.0,11.0,41,0.00,,,0.00,0.000000,,2013-02-11 10:01:00,
2013-02-11 02:11:00,32.0,11.0,-100.00,NNW,331,4.0,11.0,41,0.00,,,0.00,0.000000,,2013-02-11 10:11:00,
2013-02-11 02:21:00,32.0,11.0,-100.00,NNW,331,4.0,11.0,41,0.00,,,0.00,0.000000,,2013-02-11 10:21:00,
2013-02-11 02:52:00,32.0,10.0,-100.00,NW,321,2.0,13.0,39,0.00,,,0.00,0.000000,,2013-02-11 10:52:00,
2013-02-11 03:01:00,32.0,10.0,-100.00,NW,321,2.0,13.0,39,0.00,,,0.00,0.000000,,2013-02-11 11:01:00,
2013-02-11 03:11:00,32.0,10.0,-100.00,NW,321,2.0,13.0,39,0.00,,,0.00,0.000000,,2013-02-11 11:11:00,
2013-02-11 03:22:00,32.0,10.0,-100.00,NW,321,2.0,13.0,39,0.00,,,0.00,0.000000,,2013-02-11 11:22:00,
2013-02-11 03:52:00,32.0,10.0,-100.00,WNW,295,7.0,16.0,39,0.00,,,0.00,0.000000,,2013-02-11 11:52:00,
2013-02-11 04:03:00,32.0,10.0,-100.00,WNW,295,7.0,16.0,39,0.00,,,0.00,0.000000,,2013-02-11 12:03:00,
2013-02-11 04:12:00,32.0,10.0,-100.00,WNW,295,7.0,16.0,39,0.00,,,0.00,0.000000,,2013-02-11 12:12:00,
2013-02-11 04:22:00,32.0,10.0,-100.00,WNW,295,7.0,16.0,39,0.00,,,0.00,0.000000,,2013-02-11 12:22:00,
2013-02-11 04:52:00,31.0,10.0,-100.00,NNW,331,3.0,21.0,40,0.00,,,-99.99,0.000000,,2013-02-11 12:52:00,
2013-02-11 05:01:00,31.0,10.0,-100.00,NNW,331,3.0,21.0,40,0.00,,,-99.99,0.000000,,2013-02-11 13:01:00,
2013-02-11 05:11:00,31.0,10.0,-100.00,NNW,331,3.0,21.0,40,0.00,,,-99.99,0.000000,,2013-02-11 13:11:00,
2013-02-11 05:21:00,31.0,10.0,-100.00,NNW,331,3.0,21.0,40,0.00,,,-99.99,0.000000,,2013-02-11 13:21:00,
2013-02-11 05:52:00,30.0,10.0,-100.00,West,275,1.0,11.0,42,0.00,,,-99.99,0.000000,,2013-02-11 13:52:00,
2013-02-11 06:01:00,30.0,10.0,-100.00,West,275,1.0,11.0,42,0.00,,,-99.99,0.000000,,2013-02-11 14:01:00,
2013-02-11 06:11:00,30.0,10.0,-100.00,West,275,1.0,11.0,42,0.00,,,-99.99,0.000000,,2013-02-11 14:11:00,
2013-02-11 06:21:00,30.0,10.0,-100.00,West,275,1.0,11.0,42,0.00,,,-99.99,0.000000,,2013-02-11 14:21:00,
2013-02-11 06:53:00,29.0,8.0,-100.00,WNW,299,3.0,13.0,40,0.00,,,0.00,0.000000,,2013-02-11 14:53:00,
2013-02-11 07:01:00,29.0,8.0,-100.00,WNW,299,3.0,13.0,40,0.00,,,0.00,0.000000,,2013-02-11 15:01:00,
2013-02-11 07:11:00,29.0,8.0,-100.00,WNW,299,3.0,13.0,40,0.00,,,0.00,0.000000,,2013-02-11 15:11:00,
2013-02-11 07:22:00,29.0,8.0,-100.00,WNW,299,3.0,13.0,40,0.00,,,0.00,0.000000,,2013-02-11 15:22:00,
2013-02-11 07:52:00,31.0,8.0,-100.00,NNW,329,1.0,9.0,38,0.00,,,0.00,28.000000,,2013-02-11 15:52:00,
2013-02-11 08:01:00,31.0,8.0,-100.00,NNW,329,1.0,9.0,38,0.00,,,0.00,28.000000,,2013-02-11 16:01:00,
2013-02-11 08:11:00,31.0,8.0,-100.00,NNW,329,1.0,9.0,38,0.00,,,0.00,28.000000,,2013-02-11 16:11:00,
2013-02-11 08:21:00,31.0,8.0,-100.00,NNW,329,1.0,9.0,38,0.00,,,0.00,28.000000,,2013-02-11 16:21:00,
2013-02-11 08:52:00,39.0,4.0,-100.00,SE,134,0.0,8.0,23,0.00,,,0.00,218.000000,,2013-02-11 16:52:00,
2013-02-11 09:01:00,39.0,4.0,-100.00,SE,134,0.0,8.0,23,0.00,,,0.00,218.000000,,2013-02-11 17:01:00,
2013-02-11 09:11:00,39.0,4.0,-100.00,SE,134,0.0,8.0,23,0.00,,,0.00,218.000000,,2013-02-11 17:11:00,
2013-02-11 09:21:00,39.0,4.0,-100.00,SE,134,0.0,8.0,23,0.00,,,0.00,218.000000,,2013-02-11 17:21:00,
2013-02-11 09:53:00,41.0,2.0,-100.00,NW,324,1.0,10.0,19,0.00,,,0.00,428.000000,,2013-02-11 17:53:00,
2013-02-11 10:01:00,41.0,2.0,-100.00,NW,324,1.0,10.0,19,0.00,,,0.00,428.000000,,2013-02-11 18:01:00,
2013-02-11 10:11:00,41.0,2.0,-100.00,NW,324,1.0,10.0,19,0.00,,,0.00,428.000000,,2013-02-11 18:11:00,
2013-02-11 10:21:00,41.0,2.0,-100.00,NW,324,1.0,10.0,19,0.00,,,0.00,428.000000,,2013-02-11 18:21:00,
2013-02-11 10:53:00,42.0,2.0,-100.00,NW,321,3.0,14.0,18,0.00,,,0.00,620.000000,,2013-02-11 18:53:00,
2013-02-11 11:01:00,42.0,2.0,-100.00,NW,321,3.0,14.0,18,0.00,,,0.00,620.000000,,2013-02-11 19:01:00,
2013-02-11 11:11:00,42.0,2.0,-100.00,NW,321,3.0,14.0,18,0.00,,,0.00,620.000000,,2013-02-11 19:11:00,
2013-02-11 11:21:00,42.0,2.0,-100.00,NW,321,3.0,14.0,18,0.00,,,0.00,620.000000,,2013-02-11 19:21:00,
2013-02-11 12:52:00,43.0,-1.0,-100.00,ESE,109,6.0,18.0,15,-99.99,,,0.00,821.000000,,2013-02-11 20:52:00,
2013-02-11 13:02:00,43.0,-1.0,-100.00,ESE,109,6.0,18.0,15,-99.99,,,0.00,821.000000,,2013-02-11 21:02:00,
2013-02-11 13:11:00,43.0,-1.0,-100.00,ESE,109,6.0,18.0,15,-99.99,,,0.00,821.000000,,2013-02-11 21:11:00,
2013-02-11 13:21:00,43.0,-1.0,-100.00,ESE,109,6.0,18.0,15,-99.99,,,0.00,821.000000,,2013-02-11 21:21:00,
2013-02-11 13:52:00,47.0,0.0,-100.00,ESE,122,5.0,16.0,14,0.00,,,0.00,803.000000,,2013-02-11 21:52:00,
2013-02-11 14:01:00,47.0,0.0,-100.00,ESE,122,5.0,16.0,14,0.00,,,0.00,803.000000,,2013-02-11 22:01:00,
2013-02-11 14:11:00,47.0,0.0,-100.00,ESE,122,5.0,16.0,14,0.00,,,0.00,803.000000,,2013-02-11 22:11:00,
2013-02-11 14:21:00,47.0,0.0,-100.00,ESE,122,5.0,16.0,14,0.00,,,0.00,803.000000,,2013-02-11 22:21:00,
2013-02-11 14:52:00,46.0,7.0,-100.00,NW,319,5.0,15.0,20,0.00,,,0.00,711.000000,,2013-02-11 22:52:00,
2013-02-11 15:01:00,46.0,7.0,-100.00,NW,319,5.0,15.0,20,0.00,,,0.00,711.000000,,2013-02-11 23:01:00,
2013-02-11 15:11:00,46.0,7.0,-100.00,NW,319,5.0,15.0,20,0.00,,,0.00,711.000000,,2013-02-11 23:11:00,
2013-02-11 15:21:00,46.0,7.0,-100.00,NW,319,5.0,15.0,20,0.00,,,0.00,711.000000,,2013-02-11 23:21:00,
2013-02-11 15:52:00,44.0,-4.0,-100.00,SSE,147,4.0,11.0,13,0.00,,,0.00,554.000000,,2013-02-11 23:52:00,
2013-02-11 16:01:00,44.0,-4.0,-100.00,SSE,147,4.0,11.0,13,0.00,,,0.00,554.000000,,2013-02-12 00:01:00,
2013-02-11 16:11:00,44.0,-4.0,-100.00,SSE,147,4.0,11.0,13,0.00,,,0.00,554.000000,,2013-02-12 00:11:00,
2013-02-11 16:21:00,44.0,-4.0,-100.00,SSE,147,4.0,11.0,13,0.00,,,0.00,554.000000,,2013-02-12 00:21:00,
2013-02-11 16:52:00,39.0,-2.0,-100.00,ENE,69,1.0,13.0,17,0.00,,,0.00,284.000000,,2013-02-12 00:52:00,
2013-02-11 17:01:00,39.0,-2.0,-100.00,ENE,69,1.0,13.0,17,0.00,,,0.00,284.000000,,2013-02-12 01:01:00,
2013-02-11 17:11:00,39.0,-2.0,-100.00,ENE,69,1.0,13.0,17,0.00,,,0.00,284.000000,,2013-02-12 01:11:00,
2013-02-11 17:21:00,39.0,-2.0,-100.00,ENE,69,1.0,13.0,17,0.00,,,0.00,284.000000,,2013-02-12 01:21:00,
2013-02-11 17:52:00,34.0,-2.0,-100.00,ESE,105,4.0,11.0,21,0.00,,,0.00,19.000000,,2013-02-12 01:52:00,
2013-02-11 18:01:00,34.0,-2.0,-100.00,ESE,105,4.0,11.0,21,0.00,,,0.00,19.000000,,2013-02-12 02:01:00,
2013-02-11 18:11:00,34.0,-2.0,-100.00,ESE,105,4.0,11.0,21,0.00,,,0.00,19.000000,,2013-02-12 02:11:00,
2013-02-11 18:21:00,34.0,-2.0,-100.00,ESE,105,4.0,11.0,21,0.00,,,0.00,19.000000,,2013-02-12 02:21:00,
2013-02-11 18:52:00,32.0,-2.0,-100.00,ENE,75,5.0,7.0,22,0.00,,,0.00,1.000000,,2013-02-12 02:52:00,
2013-02-11 19:02:00,32.0,-2.0,-100.00,ENE,75,5.0,7.0,22,0.00,,,0.00,1.000000,,2013-02-12 03:02:00,
2013-02-11 19:11:00,32.0,-2.0,-100.00,ENE,75,5.0,7.0,22,0.00,,,0.00,1.000000,,2013-02-12 03:11:00,
2013-02-11 19:21:00,32.0,-2.0,-100.00,ENE,75,5.0,7.0,22,0.00,,,0.00,1.000000,,2013-02-12 03:21:00,
2013-02-11 19:52:00,32.0,-2.0,-100.00,NE,53,2.0,7.0,23,0.00,,,0.00,0.000000,,2013-02-12 03:52:00,
2013-02-11 20:01:00,32.0,-2.0,-100.00,NE,53,2.0,7.0,23,0.00,,,0.00,0.000000,,2013-02-12 04:01:00,
2013-02-11 20:11:00,32.0,-2.0,-100.00,NE,53,2.0,7.0,23,0.00,,,0.00,0.000000,,2013-02-12 04:11:00,
2013-02-11 20:21:00,32.0,-2.0,-100.00,NE,53,2.0,7.0,23,0.00,,,0.00,0.000000,,2013-02-12 04:21:00,
2013-02-11 20:52:00,29.0,0.0,-100.00,NE,47,0.0,5.0,28,0.00,,,0.00,0.000000,,2013-02-12 04:52:00,
2013-02-11 21:01:00,29.0,0.0,-100.00,NE,47,0.0,5.0,28,0.00,,,0.00,0.000000,,2013-02-12 05:01:00,
2013-02-11 21:11:00,29.0,0.0,-100.00,NE,47,0.0,5.0,28,0.00,,,0.00,0.000000,,2013-02-12 05:11:00,
2013-02-11 21:21:00,29.0,0.0,-100.00,NE,47,0.0,5.0,28,0.00,,,0.00,0.000000,,2013-02-12 05:21:00,
2013-02-11 21:52:00,31.0,13.0,-100.00,South,183,4.0,6.0,46,0.00,,,0.00,0.000000,,2013-02-12 05:52:00,
2013-02-11 22:01:00,31.0,13.0,-100.00,South,183,4.0,6.0,46,0.00,,,0.00,0.000000,,2013-02-12 06:01:00,
2013-02-11 22:12:00,31.0,13.0,-100.00,South,183,4.0,6.0,46,0.00,,,0.00,0.000000,,2013-02-12 06:12:00,
2013-02-11 22:21:00,31.0,13.0,-100.00,South,183,4.0,6.0,46,0.00,,,0.00,0.000000,,2013-02-12 06:21:00,
2013-02-11 22:52:00,30.0,15.0,-100.00,NW,324,4.0,6.0,54,0.00,,,0.00,0.000000,,2013-02-12 06:52:00,
2013-02-11 23:01:00,30.0,15.0,-100.00,NW,324,4.0,6.0,54,0.00,,,0.00,0.000000,,2013-02-12 07:01:00,
2013-02-11 23:11:00,30.0,15.0,-100.00,NW,324,4.0,6.0,54,0.00,,,0.00,0.000000,,2013-02-12 07:11:00,
2013-02-11 23:21:00,30.0,15.0,-100.00,NW,324,4.0,6.0,54,0.00,,,0.00,0.000000,,2013-02-12 07:21:00,
2013-02-11 23:52:00,29.0,16.0,-100.00,NW,312,4.0,6.0,57,0.00,,,0.00,0.000000,,2013-02-12 07:52:00,